Weather History for KGEV - December, 2010

Change the Weather History Date:

Wednesday, December 29, 2010

  Actual Average Record
Temperature  
Mean Temperature 32 °F -  
Max Temperature 37 °F 46 °F 68 °F (1984)
Min Temperature 26 °F 23 °F 8 °F (1978)
Degree Days  
Heating Degree Days 34    
Moisture  
Dew Point 17 °F    
Average Humidity 59    
Maximum Humidity 75    
Minimum Humidity 23    
Precipitation  
Precipitation 0.00 in - - ()
Sea Level Pressure  
Sea Level Pressure 30.03 in    
Wind  
Wind Speed 12 mph (WNW)    
Max Wind Speed 23 mph    
Max Gust Speed 33 mph    
Visibility 10 miles    
Events      
Averages and records for this station are not official NWS values.
T = Trace of Precipitation, MM = Missing Value Source: NWS Daily Summary

Daily Weather History Graph

Daily Weather History Graph

Search for Another Location

Airport or City:

Trip Planner

Search our weather history database for the weather conditions in past years. The results will help you decide how hot, cold, wet, or windy it might be!

Date:

Astronomy

Dec. 29, 2010 Rise Set
Actual Time 7:36 AM EST 5:18 PM EST
Civil Twilight 7:08 AM EST 5:47 PM EST
Nautical Twilight 6:35 AM EST 6:19 PM EST
Astronomical Twilight 6:04 AM EST 6:51 PM EST
Moon 1:49 AM EST (12/29) 12:44 PM EST (12/29)
Length of Visible Light 10h 39m
Length of Day
9h 42m
Waning Crescent, 33% of the Moon is Illuminated
Dec 29
Waning Crescent
Jan 4
New
Jan 12
First Quarter
Jan 19
Full
Jan 26
Last Quarter

Hourly Weather History & Observations

Time (EST) Temp. Windchill Dew Point Humidity Pressure Visibility Wind Dir Wind Speed Gust Speed Precip Events Conditions
12:01 AM 30.2 °F 18.1 °F -4.0 °F 23% 30.02 in 10.0 mi WNW 18.4 mph 31.1 mph N/A   Clear
12:21 AM 30.2 °F 16.8 °F -4.0 °F 23% 30.02 in 10.0 mi NW 23.0 mph 29.9 mph N/A   Clear
12:41 AM 30.2 °F 19.3 °F -2.2 °F 25% 30.02 in 10.0 mi WNW 15.0 mph 25.3 mph N/A   Clear
1:01 AM 28.4 °F 14.4 °F 1.4 °F 31% 30.02 in 10.0 mi West 23.0 mph 32.2 mph N/A   Clear
1:21 AM 28.4 °F 15.8 °F 3.2 °F 34% 30.02 in 10.0 mi West 18.4 mph 26.5 mph N/A   Clear
1:41 AM 28.4 °F 16.2 °F 5.0 °F 37% 30.01 in 10.0 mi West 17.3 mph 25.3 mph N/A   Clear
2:01 AM 28.4 °F 17.0 °F 6.8 °F 40% 30.02 in 10.0 mi West 15.0 mph 23.0 mph N/A   Clear
2:21 AM 26.6 °F 20.0 °F 6.8 °F 43% 30.02 in 10.0 mi WNW 5.8 mph 16.1 mph N/A   Clear
2:41 AM 26.6 °F 15.2 °F 8.6 °F 47% 30.02 in 10.0 mi West 13.8 mph 20.7 mph N/A   Clear
3:01 AM 26.6 °F 16.2 °F 8.6 °F 47% 30.02 in 10.0 mi West 11.5 mph 21.9 mph N/A   Clear
3:41 AM 26.6 °F 13.1 °F 10.4 °F 51% 30.01 in 10.0 mi West 19.6 mph 33.4 mph N/A   Clear
4:01 AM 26.6 °F 12.4 °F 12.2 °F 55% 30.01 in 10.0 mi West 21.9 mph 29.9 mph N/A   Clear
4:21 AM 26.6 °F 12.0 °F 12.2 °F 55% 30.00 in 10.0 mi West 23.0 mph 29.9 mph N/A   Clear
4:41 AM 26.6 °F 14.7 °F 12.2 °F 55% 30.01 in 10.0 mi WNW 15.0 mph 31.1 mph N/A   Clear
5:01 AM 26.6 °F 14.3 °F 12.2 °F 55% 30.00 in 10.0 mi WNW 16.1 mph 29.9 mph N/A   Clear
5:21 AM 26.6 °F 17.5 °F 12.2 °F 55% 30.01 in 10.0 mi NW 9.2 mph 20.7 mph N/A   Clear
5:41 AM 26.6 °F 18.2 °F 12.2 °F 55% 30.01 in 10.0 mi WNW 8.1 mph - N/A   Clear
6:01 AM 26.6 °F 17.5 °F 12.2 °F 55% 30.01 in 10.0 mi WNW 9.2 mph 17.3 mph N/A   Clear
6:21 AM 26.6 °F 21.2 °F 14.0 °F 59% 30.01 in 10.0 mi NW 4.6 mph - N/A   Clear
6:42 AM 26.6 °F 20.0 °F 14.0 °F 59% 30.01 in 10.0 mi West 5.8 mph - N/A   Clear
7:01 AM 26.6 °F 22.6 °F 14.0 °F 59% 30.01 in 10.0 mi West 3.5 mph - N/A   Clear
7:41 AM 26.6 °F 16.8 °F 15.8 °F 64% 30.03 in 10.0 mi WNW 10.4 mph - N/A   Clear
8:01 AM 26.6 °F 16.8 °F 15.8 °F 64% 30.02 in 10.0 mi West 10.4 mph 16.1 mph N/A   Clear
8:21 AM 26.6 °F 16.2 °F 15.8 °F 64% 30.03 in 10.0 mi WNW 11.5 mph 17.3 mph N/A   Clear
8:41 AM 26.6 °F 17.5 °F 15.8 °F 64% 30.03 in 10.0 mi WNW 9.2 mph 18.4 mph N/A   Clear
9:01 AM 26.6 °F 19.1 °F 15.8 °F 64% 30.03 in 10.0 mi West 6.9 mph - N/A   Clear
9:23 AM 28.4 °F 21.2 °F 15.8 °F 59% 30.03 in 10.0 mi West 6.9 mph - N/A   Clear
10:02 AM 30.2 °F - 17.6 °F 60% 30.04 in 10.0 mi Calm Calm - N/A   Clear
10:21 AM 30.2 °F 20.8 °F 19.4 °F 64% 30.04 in 10.0 mi NW 11.5 mph 18.4 mph N/A   Clear
10:41 AM 30.2 °F 24.3 °F 19.4 °F 64% 30.05 in 10.0 mi NW 5.8 mph - N/A   Clear
11:01 AM 30.2 °F 25.4 °F 19.4 °F 64% 30.06 in 10.0 mi WNW 4.6 mph - N/A   Clear
11:21 AM 32.0 °F 26.4 °F 19.4 °F 60% 30.06 in 10.0 mi WNW 5.8 mph - N/A   Clear
11:41 AM 32.0 °F 26.4 °F 19.4 °F 60% 30.05 in 10.0 mi NNW 5.8 mph - N/A   Clear
12:02 PM 32.0 °F - 19.4 °F 60% 30.05 in 10.0 mi Calm Calm - N/A   Clear
12:21 PM 33.8 °F 30.8 °F 19.4 °F 56% 30.04 in 10.0 mi NW 3.5 mph - N/A   Clear
1:02 PM 32.0 °F 24.8 °F 21.2 °F 64% 30.04 in 10.0 mi West 8.1 mph - N/A   Clear
1:21 PM 33.8 °F 30.8 °F 21.2 °F 60% 30.04 in 10.0 mi WNW 3.5 mph - N/A   Clear
1:41 PM 33.8 °F 25.8 °F 21.2 °F 60% 30.03 in 10.0 mi West 10.4 mph 19.6 mph N/A   Clear
2:01 PM 33.8 °F 26.4 °F 21.2 °F 60% 30.03 in 10.0 mi WNW 9.2 mph 17.3 mph N/A   Clear
2:21 PM 35.6 °F 26.6 °F 21.2 °F 56% 30.02 in 10.0 mi WNW 13.8 mph 20.7 mph N/A   Clear
2:41 PM 35.6 °F 28.6 °F 23.0 °F 60% 30.02 in 10.0 mi WNW 9.2 mph - N/A   Clear
3:02 PM 35.6 °F 27.5 °F 24.8 °F 65% 30.01 in 10.0 mi NW 11.5 mph 24.2 mph N/A   Clear
3:21 PM 37.4 °F 32.8 °F 24.8 °F 60% 30.01 in 10.0 mi NW 5.8 mph 17.3 mph N/A   Clear
3:41 PM 37.4 °F 29.8 °F 24.8 °F 60% 30.00 in 10.0 mi WNW 11.5 mph 16.1 mph N/A   Clear
4:01 PM 37.4 °F 30.3 °F 24.8 °F 60% 30.00 in 10.0 mi WNW 10.4 mph 16.1 mph N/A   Clear
4:23 PM 37.4 °F 32.8 °F 24.8 °F 60% 30.02 in 10.0 mi West 5.8 mph 20.7 mph N/A   Clear
4:41 PM 37.4 °F 32.8 °F 26.6 °F 65% 30.02 in 10.0 mi NW 5.8 mph - N/A   Clear
5:01 PM 37.4 °F 34.9 °F 26.6 °F 65% 30.02 in 10.0 mi WSW 3.5 mph - N/A   Clear
5:21 PM 35.6 °F 30.7 °F 26.6 °F 70% 30.03 in 10.0 mi West 5.8 mph - N/A   Clear
5:41 PM 35.6 °F 28.0 °F 24.8 °F 65% 30.04 in 10.0 mi West 10.4 mph - N/A   Clear
6:01 PM 35.6 °F 31.7 °F 24.8 °F 65% 30.04 in 10.0 mi NW 4.6 mph - N/A   Clear
6:21 PM 35.6 °F 31.7 °F 26.6 °F 70% 30.04 in 10.0 mi WNW 4.6 mph - N/A   Clear
6:41 PM 32.0 °F 28.7 °F 24.8 °F 75% 30.04 in 10.0 mi SE 3.5 mph - N/A   Clear
7:01 PM 32.0 °F - 24.8 °F 75% 30.05 in 10.0 mi Calm Calm - N/A   Clear
7:21 PM 32.0 °F 28.7 °F 24.8 °F 75% 30.05 in 10.0 mi SE 3.5 mph - N/A   Clear
7:41 PM 32.0 °F - 24.8 °F 75% 30.06 in 10.0 mi Calm Calm - N/A   Clear
8:01 PM 32.0 °F - 24.8 °F 75% 30.06 in 10.0 mi Calm Calm - N/A   Clear
8:21 PM 32.0 °F - 24.8 °F 75% 30.06 in 10.0 mi Calm Calm - N/A   Mostly Cloudy
8:41 PM 32.0 °F - 24.8 °F 75% 30.06 in 10.0 mi Calm Calm - N/A   Overcast
9:21 PM 32.0 °F - 23.0 °F 69% 30.06 in 10.0 mi Calm Calm - N/A   Scattered Clouds
9:41 PM 30.2 °F - 23.0 °F 75% 30.05 in 10.0 mi Calm Calm - N/A   Scattered Clouds
10:01 PM 32.0 °F - 24.8 °F 75% 30.07 in 10.0 mi Calm Calm - N/A   Scattered Clouds
10:21 PM 32.0 °F - 24.8 °F 75% 30.07 in 10.0 mi Calm Calm - N/A   Clear
11:01 PM 32.0 °F - 24.8 °F 75% 30.08 in 10.0 mi Calm Calm - N/A   Clear
11:22 PM 30.2 °F - 24.8 °F 80% 30.08 in 10.0 mi Calm Calm - N/A   Clear
11:42 PM 28.4 °F - 24.8 °F 86% 30.08 in 10.0 mi Calm Calm - N/A   Clear